Stations météo

réclame
Mon MeteoGroup
Ponza, Italie (16280): Température de l'air & dewpoint: 16.09.2018 03:00:00 - 22.09.2018 03:00:00 (CEST)Ponza, Italie (16280): Vitesse du vent: 16.09.2018 03:00:00 - 22.09.2018 03:00:00 (CEST)Ponza, Italie (16280): Direction du vent: 16.09.2018 03:00:00 - 22.09.2018 03:00:00 (CEST)Ponza, Italie (16280): reduced air pressure: 16.09.2018 03:00:00 - 22.09.2018 03:00:00 (CEST)Ponza, Italie (16280): visibility: 16.09.2018 03:00:00 - 22.09.2018 03:00:00 (CEST)Ponza, Italie (16280): Ensoleillement: 16.09.2018 03:00:00 - 22.09.2018 03:00:00 (CEST)
Date & Time tt [°C] td [°C] ff [km/h] ff [knt] dd ppp [hPa] vv [km] sd [min]
22.09.2018 03:00:00 22,2 21,2 11 6 NNE 1015,4 8 -
22.09.2018 02:00:00 22,0 20,7 11 6 N 1015,3 8 -
22.09.2018 01:00:00 22,4 21,0 9 5 N 1015,4 10 -
22.09.2018 00:00:00 22,6 21,2 11 6 NE 1014,8 7 -
21.09.2018 23:00:00 22,4 21,4 9 5 NE 1014,7 8 -
21.09.2018 22:00:00 22,6 21,6 8 4 NNE 1014,4 8 -
21.09.2018 21:00:00 22,8 21,8 8 4 NE 1014,3 8 -
21.09.2018 20:00:00 22,6 20,7 18 10 E 1014,1 7 0
21.09.2018 19:00:00 22,6 20,9 8 4 E 1013,6 7 0
21.09.2018 18:00:00 22,8 21,1 18 10 ESE 1013,6 7 0
21.09.2018 17:00:00 22,6 21,8 18 10 ESE 1014,0 6 0
21.09.2018 16:00:00 22,4 21,5 16 9 E 1014,1 7 0
21.09.2018 15:00:00 22,6 21,9 18 10 ESE 1014,1 7 0
21.09.2018 14:00:00 22,6 21,8 21 11 ESE 1014,2 10 0
21.09.2018 13:00:00 21,4 19,0 26 14 E 1014,3 10 12
21.09.2018 12:00:00 21,0 19,5 31 17 ESE 1014,5 10 -
21.09.2018 11:00:00 21,4 20,4 31 17 ESE 1014,5 10 0
21.09.2018 10:00:00 23,0 21,3 18 10 E 1014,0 10 24
21.09.2018 09:00:00 23,0 20,7 21 11 ENE 1013,5 10 24
21.09.2018 08:00:00 23,0 20,9 16 9 ENE 1013,1 10 0
21.09.2018 07:00:00 22,8 21,1 18 10 NE 1013,2 10 0
21.09.2018 06:00:00 - - - - - - - -
21.09.2018 05:00:00 21,0 19,3 11 6 NE 1013,5 10 -
21.09.2018 04:00:00 21,0 19,3 11 6 NE 1013,5 10 -
21.09.2018 03:00:00 21,0 19,5 13 7 SE 1013,7 10 -
21.09.2018 02:00:00 21,2 19,7 9 5 NNE 1014,4 10 -
21.09.2018 01:00:00 22,0 21,2 11 6 SW 1014,5 10 -
21.09.2018 00:00:00 23,0 22,0 16 9 ENE 1014,4 10 -
20.09.2018 23:00:00 22,0 21,2 15 8 NE 1014,3 10 -
20.09.2018 22:00:00 22,4 21,0 21 11 NE 1014,5 8 -
20.09.2018 21:00:00 22,2 21,2 9 5 S 1014,5 10 -
20.09.2018 20:00:00 22,2 21,0 18 10 S 1014,4 10 -
20.09.2018 19:00:00 23,2 22,0 16 9 ESE 1014,3 10 0
20.09.2018 18:00:00 23,2 21,5 15 8 ESE 1014,3 10 -
20.09.2018 17:00:00 23,8 21,7 22 12 ESE 1014,3 10 60
20.09.2018 16:00:00 24,2 22,1 21 11 E 1014,3 10 60
20.09.2018 15:00:00 24,0 22,1 24 13 E 1014,3 10 48
20.09.2018 14:00:00 23,6 21,7 26 14 ESE 1014,5 10 36
20.09.2018 13:00:00 24,0 21,3 28 15 E 1015,2 20 18
20.09.2018 12:00:00 23,0 22,0 22 12 E 1015,3 10 18
20.09.2018 11:00:00 23,6 22,2 24 13 E 1015,1 10 12
20.09.2018 10:00:00 - - - - - - - -
20.09.2018 09:00:00 - - - - - - - -
20.09.2018 08:00:00 20,4 19,6 21 11 ENE 1014,7 10 0
20.09.2018 07:00:00 - - - - - - - -
20.09.2018 06:00:00 - - - - - - - -
20.09.2018 05:00:00 19,6 19,1 22 12 ESE 1014,6 8 -
20.09.2018 04:00:00 20,0 19,4 28 15 ESE 1015,0 4,0 -
20.09.2018 03:00:00 21,8 21,0 9 5 SE 1015,2 4,0 -
20.09.2018 02:00:00 22,2 21,2 22 12 NNW 1015,5 5 -
20.09.2018 01:00:00 21,2 20,4 18 10 E 1015,7 15 -
20.09.2018 00:00:00 21,6 20,6 15 8 E 1016,0 10 -
19.09.2018 23:00:00 21,0 20,2 21 11 ESE 1016,5 20 -
19.09.2018 22:00:00 21,0 20,3 13 7 ENE 1016,5 20 -
19.09.2018 21:00:00 20,8 20,0 9 5 ENE 1016,4 30 -
19.09.2018 20:00:00 21,0 20,2 5 3 SE 1016,3 10 0
19.09.2018 19:00:00 20,8 20,0 9 5 ESE 1016,1 20 0
19.09.2018 18:00:00 21,0 20,3 11 6 ESE 1015,7 20 0
19.09.2018 17:00:00 21,6 20,9 11 6 ESE 1015,7 20 0
19.09.2018 16:00:00 21,4 20,6 8 4 E 1016,8 10 0
19.09.2018 15:00:00 21,6 20,6 8 4 SE 1016,9 10 60
19.09.2018 14:00:00 21,8 20,8 8 4 ESE 1017,4 20 0
19.09.2018 13:00:00 21,8 21,0 11 6 E 1017,4 15 0
19.09.2018 12:00:00 21,6 20,9 11 6 ENE 1017,4 15 0
19.09.2018 11:00:00 21,6 21,1 9 5 ENE 1017,8 10 0
19.09.2018 10:00:00 21,0 20,5 8 4 E 1017,6 10 0
19.09.2018 09:00:00 21,0 20,7 8 4 ESE 1017,4 10 0
19.09.2018 08:00:00 21,0 20,7 8 4 E 1017,4 10 0
19.09.2018 07:00:00 21,6 21,3 9 5 E 1017,5 10 -
19.09.2018 06:00:00 21,6 21,3 8 4 E 1017,4 10 -
19.09.2018 05:00:00 21,4 21,1 5 3 ENE 1017,3 10 -
19.09.2018 04:00:00 21,4 19,7 8 4 E 1017,6 10 -
19.09.2018 03:00:00 - - - - - - - -
19.09.2018 02:00:00 23,0 22,3 2 1 ENE 1017,8 20 -
19.09.2018 01:00:00 22,8 22,5 8 4 SSE 1018,2 20 -
19.09.2018 00:00:00 23,0 22,5 8 4 SE 1018,4 20 -
18.09.2018 23:00:00 23,0 22,0 11 6 S 1018,6 20 -
18.09.2018 22:00:00 23,6 22,8 5 3 S 1018,2 20 -
18.09.2018 21:00:00 23,6 22,8 8 4 S 1017,8 20 -
18.09.2018 20:00:00 23,4 22,6 4 2 SSE 1017,3 20 -
18.09.2018 19:00:00 23,6 22,9 9 5 SE 1017,9 20 -
18.09.2018 18:00:00 24,4 23,5 9 5 S 1017,9 20 0
18.09.2018 17:00:00 25,4 23,8 5 3 SSW 1018,0 20 0
18.09.2018 16:00:00 26,0 23,9 5 3 ESE 1018,1 20 60
18.09.2018 15:00:00 26,8 24,1 4 2 ENE 1018,3 20 60
18.09.2018 14:00:00 26,0 23,3 8 4 N 1018,9 20 60
18.09.2018 13:00:00 25,6 22,7 5 3 SE 1019,4 10 48
18.09.2018 12:00:00 25,0 23,6 5 3 S 1019,4 10 24
18.09.2018 11:00:00 24,8 23,2 4 2 S 1019,1 10 6
18.09.2018 10:00:00 24,6 22,7 4 2 S 1019,1 10 12
18.09.2018 09:00:00 23,0 22,0 5 3 S 1018,7 10 0
18.09.2018 08:00:00 22,6 21,8 8 4 SSW 1018,5 10 0
18.09.2018 07:00:00 22,4 21,7 8 4 SSW 1018,5 10 -
18.09.2018 06:00:00 22,6 21,9 2 1 S 1018,5 10 -
18.09.2018 05:00:00 22,4 22,1 0 0 N 1018,6 10 -
18.09.2018 04:00:00 22,6 21,9 0 0 N 1018,6 10 -
18.09.2018 03:00:00 22,6 21,8 0 0 N 1018,6 10 -
18.09.2018 02:00:00 23,0 22,7 4 2 N 1018,5 10 -
18.09.2018 01:00:00 23,0 22,3 8 4 N 1018,5 10 -
18.09.2018 00:00:00 23,0 22,7 4 2 W 1018,4 10 -
17.09.2018 23:00:00 23,2 22,9 8 4 W 1019,0 10 -
17.09.2018 22:00:00 23,4 22,9 5 3 W 1019,4 10 -
17.09.2018 21:00:00 23,6 23,3 4 2 WSW 1018,8 10 -
17.09.2018 20:00:00 23,8 23,3 5 3 W 1018,3 10 -
17.09.2018 19:00:00 24,6 23,9 4 2 SW 1018,3 10 18
17.09.2018 18:00:00 25,2 23,8 8 4 W 1018,9 10 48
17.09.2018 17:00:00 26,6 25,0 13 7 W 1019,0 10 60
17.09.2018 16:00:00 26,4 24,4 13 7 WSW 1019,0 10 60
17.09.2018 15:00:00 26,8 24,3 13 7 W 1019,8 10 60
17.09.2018 14:00:00 26,6 24,8 11 6 W 1020,1 10 60
17.09.2018 13:00:00 26,2 24,4 8 4 W 1020,1 15 60
17.09.2018 12:00:00 26,0 24,2 4 2 SW 1020,4 10 60
17.09.2018 11:00:00 26,8 24,5 4 2 ESE 1020,2 10 60
17.09.2018 10:00:00 25,0 23,6 5 3 E 1019,5 10 60
17.09.2018 09:00:00 22,6 22,4 8 4 E 1019,4 10 60
17.09.2018 08:00:00 22,6 22,4 5 3 E 1019,4 10 24
17.09.2018 07:00:00 - - - - - - - -
17.09.2018 06:00:00 23,4 23,2 0 0 N 1019,5 10 -
17.09.2018 05:00:00 23,2 23,0 4 2 N 1019,5 10 -
17.09.2018 04:00:00 - - - - - - - -
17.09.2018 03:00:00 23,4 23,1 8 4 WNW 1019,7 15 -
17.09.2018 02:00:00 23,4 23,2 4 2 NW 1019,7 15 -
17.09.2018 01:00:00 23,4 23,1 4 2 N 1020,3 15 -
17.09.2018 00:00:00 23,6 23,1 4 2 NW 1020,5 10 -
16.09.2018 23:00:00 23,8 23,5 5 3 W 1020,5 15 -
16.09.2018 22:00:00 24,0 23,5 4 2 NW 1020,3 15 -
16.09.2018 21:00:00 24,0 23,3 4 2 W 1020,1 20 -
16.09.2018 20:00:00 24,8 24,1 9 5 WSW 1019,5 20 -
16.09.2018 19:00:00 25,0 24,3 8 4 W 1019,4 20 60
16.09.2018 18:00:00 25,2 24,3 11 6 WSW 1019,5 20 60
16.09.2018 17:00:00 26,0 23,3 8 4 SSW 1020,0 20 60
16.09.2018 16:00:00 26,4 24,1 5 3 SW 1020,2 25 60
16.09.2018 15:00:00 26,2 24,1 4 2 E 1020,3 25 60
16.09.2018 14:00:00 26,0 23,9 8 4 N 1020,5 20 60
16.09.2018 13:00:00 25,6 22,9 5 3 W 1020,9 10 42
16.09.2018 12:00:00 26,6 24,8 4 2 SE 1021,1 10 -
16.09.2018 11:00:00 26,6 24,1 4 2 NNW 1020,9 10 36
16.09.2018 10:00:00 24,2 22,1 4 2 SW 1021,4 10 12
16.09.2018 09:00:00 23,2 21,7 2 1 SSW 1020,3 10 12
16.09.2018 08:00:00 22,2 20,8 2 1 E 1020,1 10 12
16.09.2018 07:00:00 21,8 20,6 2 1 SW 1019,7 10 -
16.09.2018 06:00:00 22,0 20,8 2 1 WNW 1019,5 10 -
16.09.2018 05:00:00 22,0 20,7 2 1 WNW 1019,5 10 -
16.09.2018 04:00:00 22,2 20,8 2 1 W 1019,6 10 -
16.09.2018 03:00:00 22,6 21,6 8 4 WNW 1019,6 10 -

tt = Température de l'air
td = dewpoint
ff = Vitesse du vent
dd = Direction du vent
ppp = reduced air pressure
vv = visibility
sd = Ensoleillement

stations d'obs. à proximité